Noatak, AK

8:33 PM AKST on February 27, 2017 (GMT -0900)
Noatak

Weather History for PAWN - May, 2013

Change the Weather History Date:

Monday, May 6, 2013

  Actual Average Record
Temperature  
Mean Temperature 26 °F -  
Max Temperature 28 °F 32 °F 53 °F (2016)
Min Temperature 21 °F 18 °F 1 °F (2001)
Degree Days  
Heating Degree Days 39    
Moisture  
Dew Point 20 °F    
Average Humidity 80    
Maximum Humidity 86    
Minimum Humidity 74    
Precipitation  
Precipitation 0.14 in - - ()
Sea Level Pressure  
Sea Level Pressure 30.15 in    
Wind  
Wind Speed 11 mph (South)    
Max Wind Speed 16 mph    
Max Gust Speed 20 mph    
Visibility 5 miles    
Events      
Averages and records for this station are not official NWS values.
T = Trace of Precipitation, MM = Missing Value Source: NWS Daily Summary

Daily Weather History Graph

Daily Weather History Graph

Search for Another Location

Airport or City:

Trip Planner

Search our weather history database for the weather conditions in past years. The results will help you decide how hot, cold, wet, or windy it might be!

Date:

Astronomy

May. 06, 2013 Rise Set
Actual Time 5:28 AM AKDT 12:11 AM AKDT
Civil Twilight 3:20 AM AKDT 2:16 AM AKDT
Nautical Twilight Sun does not rise Sun does not rise
Astronomical Twilight Sun does not rise Sun does not rise
Moon 5:16 AM AKDT (5/6) 8:00 PM AKDT (5/6)
Length of Visible Light 22h 55m
Length of Day
18h 42m
Waning Crescent, 10% of the Moon is Illuminated
May 6
Waning Crescent
May 9
New
May 17
First Quarter
May 24
Full
May 31
Last Quarter

Hourly Weather History & Observations

Time (AKDT) Temp. Windchill Dew Point Humidity Pressure Visibility Wind Dir Wind Speed Gust Speed Precip Events Conditions
12:16 AM 26.6 °F 16.2 °F 21.2 °F 80% 30.14 in 4.0 mi South 11.5 mph - N/A   Overcast
12:36 AM 26.6 °F 16.2 °F 21.2 °F 80% 30.14 in 5.0 mi South 11.5 mph 16.1 mph N/A   Overcast
12:56 AM 26.6 °F 16.2 °F 21.2 °F 80% 30.14 in 3.0 mi South 11.5 mph - N/A   Overcast
1:16 AM 26.6 °F 16.2 °F 21.2 °F 80% 30.14 in 8.0 mi South 11.5 mph - N/A   Mostly Cloudy
1:36 AM 26.6 °F 17.5 °F 21.2 °F 80% 30.14 in 8.0 mi South 9.2 mph - N/A   Overcast
1:56 AM 24.8 °F 16.1 °F 21.2 °F 86% 30.14 in 5.0 mi SSE 8.1 mph - N/A   Overcast
2:16 AM 24.8 °F 16.1 °F 21.2 °F 86% 30.14 in 4.0 mi SSE 8.1 mph - N/A   Overcast
2:36 AM 24.8 °F 15.3 °F 21.2 °F 86% 30.14 in 5.0 mi SSE 9.2 mph - N/A   Overcast
2:56 AM 24.8 °F 14.0 °F 21.2 °F 86% 30.14 in 6.0 mi South 11.5 mph - N/A   Overcast
3:16 AM 24.8 °F 13.4 °F 21.2 °F 86% 30.15 in 7.0 mi South 12.7 mph - N/A   Overcast
3:36 AM 24.8 °F 14.0 °F 21.2 °F 86% 30.15 in 4.0 mi South 11.5 mph - N/A   Overcast
3:56 AM 24.8 °F 14.0 °F 21.2 °F 86% 30.14 in 5.0 mi South 11.5 mph - N/A   Overcast
4:16 AM 24.8 °F 14.6 °F 21.2 °F 86% 30.14 in 8.0 mi South 10.4 mph - N/A   Overcast
4:36 AM 24.8 °F 15.3 °F 21.2 °F 86% 30.15 in 9.0 mi South 9.2 mph - N/A   Overcast
4:56 AM 24.8 °F 15.3 °F 21.2 °F 86% 30.14 in 10.0 mi South 9.2 mph - N/A   Overcast
5:16 AM 24.8 °F 14.6 °F 21.2 °F 86% 30.14 in 5.0 mi SSW 10.4 mph - N/A   Overcast
5:36 AM 24.8 °F 16.9 °F 21.2 °F 86% 30.14 in 9.0 mi SSW 6.9 mph - N/A   Overcast
5:56 AM 24.8 °F 16.9 °F 19.4 °F 80% 30.14 in 10.0 mi SSW 6.9 mph - N/A   Overcast
6:16 AM 24.8 °F 15.3 °F 19.4 °F 80% 30.14 in 6.0 mi South 9.2 mph - N/A   Overcast
6:36 AM 24.8 °F 16.9 °F 21.2 °F 86% 30.14 in 10.0 mi SSW 6.9 mph - N/A   Overcast
6:56 AM 24.8 °F 16.9 °F 19.4 °F 80% 30.14 in 10.0 mi South 6.9 mph - N/A   Overcast
7:16 AM 24.8 °F 15.3 °F 19.4 °F 80% 30.14 in 10.0 mi South 9.2 mph - N/A   Overcast
7:36 AM 24.8 °F 16.1 °F 19.4 °F 80% 30.14 in 10.0 mi SSW 8.1 mph - N/A   Overcast
7:56 AM 24.8 °F 14.6 °F 19.4 °F 80% 30.14 in 10.0 mi SSW 10.4 mph - N/A   Overcast
8:16 AM 24.8 °F 15.3 °F 19.4 °F 80% 30.14 in 10.0 mi SSW 9.2 mph - 0.14 in   Overcast
8:36 AM 24.8 °F 14.6 °F 19.4 °F 80% 30.14 in 10.0 mi South 10.4 mph - 0.14 in   Overcast
8:56 AM 24.8 °F 13.4 °F 19.4 °F 80% 30.14 in 10.0 mi South 12.7 mph - 0.14 in   Overcast
9:16 AM 24.8 °F 14.0 °F 19.4 °F 80% 30.15 in 10.0 mi South 11.5 mph - N/A   Overcast
9:36 AM 24.8 °F 14.6 °F 19.4 °F 80% 30.15 in 3.0 mi South 10.4 mph - N/A   Overcast
9:56 AM 24.8 °F 13.4 °F 19.4 °F 80% 30.15 in 5.0 mi South 12.7 mph - N/A   Overcast
10:16 AM 26.6 °F 15.7 °F 19.4 °F 74% 30.15 in 3.0 mi South 12.7 mph - N/A   Overcast
10:36 AM 26.6 °F 15.7 °F 19.4 °F 74% 30.15 in 2.5 mi South 12.7 mph - N/A   Overcast
10:56 AM 26.6 °F 15.2 °F 19.4 °F 74% 30.15 in 3.0 mi South 13.8 mph - N/A   Overcast
11:16 AM 26.6 °F 15.2 °F 19.4 °F 74% 30.15 in 3.0 mi South 13.8 mph 19.6 mph N/A   Overcast
11:36 AM 26.6 °F 15.2 °F 19.4 °F 74% 30.15 in 2.5 mi South 13.8 mph - N/A   Overcast
11:56 AM 26.6 °F 15.7 °F 19.4 °F 74% 30.15 in 4.0 mi South 12.7 mph - N/A   Overcast
12:16 PM 26.6 °F 14.3 °F 19.4 °F 74% 30.15 in 3.0 mi South 16.1 mph - N/A   Overcast
12:36 PM 26.6 °F 14.7 °F 19.4 °F 74% 30.15 in 2.0 mi South 15.0 mph 19.6 mph N/A   Overcast
12:56 PM 26.6 °F 16.2 °F 19.4 °F 74% 30.16 in 1.8 mi South 11.5 mph - N/A   Overcast
1:16 PM 26.6 °F 14.7 °F 19.4 °F 74% 30.16 in 1.0 mi South 15.0 mph - N/A   Overcast
1:36 PM 26.6 °F 14.3 °F 19.4 °F 74% 30.16 in 2.5 mi South 16.1 mph 19.6 mph N/A   Overcast
1:56 PM 26.6 °F 14.3 °F 19.4 °F 74% 30.16 in 1.8 mi South 16.1 mph - N/A   Overcast
2:16 PM 26.6 °F 14.3 °F 21.2 °F 80% 30.16 in 2.0 mi South 16.1 mph - N/A   Overcast
2:56 PM 26.6 °F 14.7 °F 21.2 °F 80% 30.16 in 1.5 mi South 15.0 mph - N/A   Overcast
3:16 PM 26.6 °F 15.7 °F 21.2 °F 80% 30.16 in 1.0 mi South 12.7 mph 19.6 mph N/A   Overcast
3:36 PM 26.6 °F 15.2 °F 21.2 °F 80% 30.16 in 1.5 mi South 13.8 mph 18.4 mph N/A   Overcast
3:56 PM 26.6 °F 14.7 °F 21.2 °F 80% 30.16 in 1.5 mi South 15.0 mph - N/A   Overcast
4:16 PM 26.6 °F 15.2 °F 21.2 °F 80% 30.16 in 1.2 mi South 13.8 mph - N/A   Overcast
4:36 PM 26.6 °F 14.7 °F 21.2 °F 80% 30.16 in 2.5 mi South 15.0 mph - N/A   Overcast
4:56 PM 26.6 °F 15.7 °F 21.2 °F 80% 30.16 in 2.0 mi South 12.7 mph - N/A   Overcast
5:16 PM 28.4 °F 18.0 °F 21.2 °F 74% 30.16 in 2.0 mi South 12.7 mph - N/A   Overcast
5:56 PM 26.6 °F 15.7 °F 21.2 °F 80% 30.16 in 1.5 mi South 12.7 mph - N/A   Overcast
6:16 PM 26.6 °F 15.2 °F 21.2 °F 80% 30.16 in 3.0 mi South 13.8 mph - N/A   Overcast
6:36 PM 26.6 °F 15.2 °F 21.2 °F 80% 30.16 in 2.0 mi South 13.8 mph - N/A   Overcast
6:56 PM 26.6 °F 14.7 °F 21.2 °F 80% 30.16 in 1.2 mi South 15.0 mph - N/A   Overcast
7:16 PM 26.6 °F 15.2 °F 21.2 °F 80% 30.16 in 2.0 mi South 13.8 mph - N/A   Overcast
7:36 PM 26.6 °F 15.2 °F 21.2 °F 80% 30.16 in 1.5 mi SSE 13.8 mph - N/A   Overcast
7:56 PM 26.6 °F 15.7 °F 21.2 °F 80% 30.16 in 2.0 mi South 12.7 mph - N/A   Overcast
8:16 PM 26.6 °F 16.2 °F 21.2 °F 80% 30.16 in 2.5 mi SSE 11.5 mph - N/A   Overcast
8:36 PM 26.6 °F 15.7 °F 21.2 °F 80% 30.16 in 2.5 mi South 12.7 mph - N/A   Overcast
8:56 PM 26.6 °F 15.7 °F 21.2 °F 80% 30.16 in 3.0 mi SSE 12.7 mph - N/A   Overcast
9:16 PM 26.6 °F 15.7 °F 21.2 °F 80% 30.16 in 3.0 mi SSE 12.7 mph - N/A   Overcast
9:36 PM 26.6 °F 16.2 °F 21.2 °F 80% 30.16 in 5.0 mi South 11.5 mph 17.3 mph N/A   Overcast
9:56 PM 26.6 °F 15.7 °F 21.2 °F 80% 30.16 in 10.0 mi South 12.7 mph - N/A   Overcast
10:16 PM 24.8 °F 14.0 °F 19.4 °F 80% 30.16 in 9.0 mi SSE 11.5 mph 17.3 mph N/A   Overcast
10:36 PM 24.8 °F 14.0 °F 19.4 °F 80% 30.17 in 6.0 mi South 11.5 mph - N/A   Overcast
10:56 PM 24.8 °F 14.6 °F 19.4 °F 80% 30.17 in 10.0 mi SSE 10.4 mph - N/A   Overcast
11:16 PM 24.8 °F 15.3 °F 19.4 °F 80% 30.17 in 10.0 mi SSE 9.2 mph - N/A   Overcast
11:36 PM 24.8 °F 14.6 °F 19.4 °F 80% 30.17 in 10.0 mi SSE 10.4 mph - N/A   Overcast
11:56 PM 21.2 °F 12.6 °F 17.6 °F 86% 30.17 in 10.0 mi SSE 6.9 mph - N/A   Mostly Cloudy